Time,TemperatureF,DewpointF,PressureIn,WindDirection,WindDirectionDegrees,WindSpeedMPH,WindSpeedGustMPH,Humidity,HourlyPrecipIn,Conditions,Clouds,dailyrainin,SoftwareType,DateUTC
2014-01-17 00:02:00,27.7,25.7,28.44,SW,214,5.0,7.6,91,-99.99,,,-99.99,WSDL version 420,2014-01-17 05:02:00,
2014-01-17 00:04:00,27.7,25.7,28.44,South,191,6.4,7.6,91,-99.99,,,-99.99,WSDL version 420,2014-01-17 05:04:00,
2014-01-17 00:08:00,27.7,25.7,28.44,South,191,2.8,7.6,91,-99.99,,,-99.99,WSDL version 420,2014-01-17 05:08:00,
2014-01-17 00:14:00,27.7,25.7,28.44,SW,218,6.0,9.8,91,-99.99,,,-99.99,WSDL version 420,2014-01-17 05:14:00,
2014-01-17 00:20:00,27.7,25.7,28.44,SSW,210,7.0,9.8,91,-99.99,,,-99.99,WSDL version 420,2014-01-17 05:20:00,
2014-01-17 00:24:00,27.7,25.7,28.44,South,174,4.6,7.8,91,-99.99,,,-99.99,WSDL version 420,2014-01-17 05:24:00,
2014-01-17 00:30:00,27.7,25.7,28.44,South,180,6.4,11.0,91,-99.99,,,-99.99,WSDL version 420,2014-01-17 05:30:00,
2014-01-17 00:32:00,27.7,25.7,28.44,SSE,150,4.8,11.0,91,-99.99,,,-99.99,WSDL version 420,2014-01-17 05:32:00,
2014-01-17 00:37:00,27.9,25.9,28.44,South,186,5.4,8.7,91,-99.99,,,-99.99,WSDL version 420,2014-01-17 05:37:00,
2014-01-17 00:43:00,27.9,26.1,28.44,SSW,210,5.1,8.7,92,-99.99,,,-99.99,WSDL version 420,2014-01-17 05:43:00,
2014-01-17 00:49:00,27.9,26.1,28.44,SSW,203,7.8,8.1,92,-99.99,,,-99.99,WSDL version 420,2014-01-17 05:49:00,
2014-01-17 00:57:00,28.0,26.3,28.41,SSW,210,6.8,8.1,92,-99.99,,,-99.99,WSDL version 420,2014-01-17 05:57:00,
2014-01-17 01:02:00,28.2,26.5,28.41,WSW,248,5.5,7.2,92,-99.99,,,-99.99,WSDL version 420,2014-01-17 06:02:00,
2014-01-17 01:08:00,28.3,26.3,28.41,South,188,6.3,8.5,91,-99.99,,,-99.99,WSDL version 420,2014-01-17 06:08:00,
2014-01-17 01:14:00,28.4,26.4,28.44,SSW,195,8.2,8.7,91,-99.99,,,-99.99,WSDL version 420,2014-01-17 06:14:00,
2014-01-17 01:20:00,28.4,26.1,28.44,SSW,210,2.8,8.7,90,-99.99,,,-99.99,WSDL version 420,2014-01-17 06:20:00,
2014-01-17 01:26:00,28.4,25.9,28.44,WSW,248,5.0,6.5,89,-99.99,,,-99.99,WSDL version 420,2014-01-17 06:26:00,
2014-01-17 01:32:00,28.4,25.7,28.44,South,189,4.2,6.5,88,-99.99,,,-99.99,WSDL version 420,2014-01-17 06:32:00,
2014-01-17 01:38:00,28.4,25.3,28.44,SW,225,5.4,6.5,87,-99.99,,,-99.99,WSDL version 420,2014-01-17 06:38:00,
2014-01-17 01:44:00,28.3,25.2,28.44,SW,225,3.0,8.1,86,-99.99,,,-99.99,WSDL version 420,2014-01-17 06:44:00,
2014-01-17 01:50:00,28.2,24.9,28.44,WSW,240,6.0,14.5,86,-99.99,,,-99.99,WSDL version 420,2014-01-17 06:50:00,
2014-01-17 01:52:00,28.1,24.8,28.44,SW,218,3.9,14.5,86,-99.99,,,-99.99,WSDL version 420,2014-01-17 06:52:00,
2014-01-17 01:58:00,28.0,24.6,28.44,WSW,248,5.3,7.2,86,-99.99,,,-99.99,WSDL version 420,2014-01-17 06:58:00,
2014-01-17 02:04:00,27.9,24.5,28.44,SW,218,4.2,6.0,86,-99.99,,,-99.99,WSDL version 420,2014-01-17 07:04:00,
2014-01-17 02:10:00,27.9,24.5,28.44,South,180,9.1,12.1,86,-99.99,,,-99.99,WSDL version 420,2014-01-17 07:10:00,
2014-01-17 02:16:00,27.8,24.4,28.44,WSW,248,3.7,12.1,86,-99.99,,,-99.99,WSDL version 420,2014-01-17 07:16:00,
2014-01-17 02:21:00,27.7,24.4,28.44,SW,218,2.8,7.4,86,-99.99,,,-99.99,WSDL version 420,2014-01-17 07:21:00,
2014-01-17 02:27:00,27.5,24.2,28.44,WSW,255,3.1,6.5,86,-99.99,,,-99.99,WSDL version 420,2014-01-17 07:27:00,
2014-01-17 02:33:00,27.5,24.4,28.44,West,263,1.9,6.5,87,-99.99,,,-99.99,WSDL version 420,2014-01-17 07:33:00,
2014-01-17 02:39:00,27.5,24.4,28.44,WSW,248,3.5,5.4,87,-99.99,,,-99.99,WSDL version 420,2014-01-17 07:39:00,
2014-01-17 02:45:00,27.4,24.4,28.44,WSW,242,3.8,5.4,87,-99.99,,,-99.99,WSDL version 420,2014-01-17 07:45:00,
2014-01-17 02:51:00,27.3,24.3,28.44,SW,225,5.4,6.5,87,-99.99,,,-99.99,WSDL version 420,2014-01-17 07:51:00,
2014-01-17 02:57:00,27.3,24.5,28.47,West,270,4.1,6.5,88,-99.99,,,-99.99,WSDL version 420,2014-01-17 07:57:00,
2014-01-17 03:03:00,27.3,24.5,28.47,SW,233,9.2,12.5,88,-99.99,,,-99.99,WSDL version 420,2014-01-17 08:03:00,
2014-01-17 03:09:00,27.3,24.5,28.47,SW,225,4.5,12.5,88,-99.99,,,-99.99,WSDL version 420,2014-01-17 08:09:00,
2014-01-17 03:15:00,27.1,24.4,28.47,WSW,242,5.5,8.9,88,-99.99,,,-99.99,WSDL version 420,2014-01-17 08:15:00,
2014-01-17 03:21:00,27.1,24.3,28.47,SW,218,3.6,8.9,88,-99.99,,,-99.99,WSDL version 420,2014-01-17 08:21:00,
2014-01-17 03:28:00,27.0,23.9,28.47,SW,218,3.9,7.6,87,-99.99,,,-99.99,WSDL version 420,2014-01-17 08:28:00,
2014-01-17 03:34:00,27.0,23.9,28.47,SW,231,6.5,7.4,87,-99.99,,,-99.99,WSDL version 420,2014-01-17 08:34:00,
2014-01-17 03:40:00,27.0,23.9,28.47,South,188,6.0,11.0,87,-99.99,,,-99.99,WSDL version 420,2014-01-17 08:40:00,
2014-01-17 03:46:00,26.8,23.7,28.47,South,188,4.5,11.0,87,-99.99,,,-99.99,WSDL version 420,2014-01-17 08:46:00,
2014-01-17 03:52:00,26.8,23.7,28.47,SW,218,7.1,8.7,87,-99.99,,,-99.99,WSDL version 420,2014-01-17 08:52:00,
2014-01-17 03:58:00,26.7,23.7,28.47,WSW,248,3.9,8.7,87,-99.99,,,-99.99,WSDL version 420,2014-01-17 08:58:00,
2014-01-17 04:06:00,26.6,23.6,28.47,South,188,4.3,6.3,87,-99.99,,,-99.99,WSDL version 420,2014-01-17 09:06:00,
2014-01-17 04:12:00,26.6,23.5,28.50,West,263,7.3,8.9,86,-99.99,,,-99.99,WSDL version 420,2014-01-17 09:12:00,
2014-01-17 04:18:00,26.6,23.3,28.50,West,263,3.4,8.9,86,-99.99,,,-99.99,WSDL version 420,2014-01-17 09:18:00,
2014-01-17 04:24:00,26.4,23.1,28.50,South,180,3.7,5.4,86,-99.99,,,-99.99,WSDL version 420,2014-01-17 09:24:00,
2014-01-17 04:30:00,26.4,23.1,28.50,SW,233,2.5,5.4,86,-99.99,,,-99.99,WSDL version 420,2014-01-17 09:30:00,
2014-01-17 04:36:00,26.3,23.0,28.50,SSW,203,6.2,9.8,86,-99.99,,,-99.99,WSDL version 420,2014-01-17 09:36:00,
2014-01-17 04:42:00,26.2,22.7,28.50,South,188,4.7,9.8,84,-99.99,,,-99.99,WSDL version 420,2014-01-17 09:42:00,
2014-01-17 04:48:00,26.2,22.6,28.50,SW,218,4.1,7.4,84,-99.99,,,-99.99,WSDL version 420,2014-01-17 09:48:00,
2014-01-17 04:54:00,26.1,22.4,28.50,South,188,3.1,7.4,84,-99.99,,,-99.99,WSDL version 420,2014-01-17 09:54:00,
2014-01-17 05:00:00,26.1,22.3,28.50,WSW,240,5.7,7.4,83,-99.99,,,-99.99,WSDL version 420,2014-01-17 10:00:00,
2014-01-17 05:08:00,26.0,22.0,28.50,SSW,203,5.0,10.1,82,-99.99,,,-99.99,WSDL version 420,2014-01-17 10:08:00,
2014-01-17 05:14:00,25.7,21.6,28.50,South,180,5.0,8.7,82,-99.99,,,-99.99,WSDL version 420,2014-01-17 10:14:00,
2014-01-17 05:20:00,25.6,21.2,28.50,SSW,210,6.2,8.7,81,-99.99,,,-99.99,WSDL version 420,2014-01-17 10:20:00,
2014-01-17 05:26:00,25.3,20.6,28.50,SE,140,6.0,9.6,80,-99.99,,,-99.99,WSDL version 420,2014-01-17 10:26:00,
2014-01-17 05:32:00,25.3,20.6,28.50,SW,218,2.8,9.6,80,-99.99,,,-99.99,WSDL version 420,2014-01-17 10:32:00,
2014-01-17 05:38:00,25.3,20.7,28.50,SW,225,3.6,7.2,81,-99.99,,,-99.99,WSDL version 420,2014-01-17 10:38:00,
2014-01-17 05:44:00,25.2,20.5,28.50,SE,124,3.2,7.2,80,-99.99,,,-99.99,WSDL version 420,2014-01-17 10:44:00,
2014-01-17 05:50:00,24.9,20.2,28.50,South,180,5.3,6.5,80,-99.99,,,-99.99,WSDL version 420,2014-01-17 10:50:00,
2014-01-17 05:56:00,24.8,20.1,28.53,SSW,203,4.5,6.5,80,-99.99,,,-99.99,WSDL version 420,2014-01-17 10:56:00,
2014-01-17 06:02:00,24.4,19.7,28.53,SSW,195,2.6,5.4,80,-99.99,,,-99.99,WSDL version 420,2014-01-17 11:02:00,
2014-01-17 06:09:00,24.2,19.5,28.50,SW,218,2.4,4.3,80,-99.99,,,-99.99,WSDL version 420,2014-01-17 11:09:00,
2014-01-17 06:15:00,23.9,19.2,28.50,SSW,203,3.2,3.6,80,-99.99,,,-99.99,WSDL version 420,2014-01-17 11:15:00,
2014-01-17 06:21:00,23.7,19.1,28.50,SW,218,2.8,3.6,80,-99.99,,,-99.99,WSDL version 420,2014-01-17 11:21:00,
2014-01-17 06:27:00,23.5,18.9,28.53,SSW,197,3.3,5.4,80,-99.99,,,-99.99,WSDL version 420,2014-01-17 11:27:00,
2014-01-17 06:33:00,23.7,19.1,28.53,SW,225,4.8,5.8,80,-99.99,,,-99.99,WSDL version 420,2014-01-17 11:33:00,
2014-01-17 06:39:00,23.7,19.1,28.53,WSW,255,4.8,5.8,80,-99.99,,,-99.99,WSDL version 420,2014-01-17 11:39:00,
2014-01-17 06:45:00,23.7,19.1,28.53,SSW,203,3.5,5.6,80,-99.99,,,-99.99,WSDL version 420,2014-01-17 11:45:00,
2014-01-17 06:51:00,23.7,19.1,28.53,SSW,195,4.9,6.3,80,-99.99,,,-99.99,WSDL version 420,2014-01-17 11:51:00,
2014-01-17 06:57:00,23.7,19.1,28.56,SSW,195,3.7,5.6,80,-99.99,,,-99.99,WSDL version 420,2014-01-17 11:57:00,
2014-01-17 07:03:00,23.7,19.1,28.56,SSW,203,3.4,7.8,80,-99.99,,,-99.99,WSDL version 420,2014-01-17 12:03:00,
2014-01-17 07:11:00,23.7,19.1,28.53,South,188,1.8,7.8,80,-99.99,,,-99.99,WSDL version 420,2014-01-17 12:11:00,
2014-01-17 07:17:00,23.7,19.1,28.53,South,188,4.0,5.6,80,-99.99,,,-99.99,WSDL version 420,2014-01-17 12:17:00,
2014-01-17 07:23:00,23.5,18.9,28.53,South,180,3.6,5.6,80,-99.99,,,-99.99,WSDL version 420,2014-01-17 12:23:00,
2014-01-17 07:29:00,23.5,18.9,28.53,SW,218,3.5,6.3,80,-99.99,,,-99.99,WSDL version 420,2014-01-17 12:29:00,
2014-01-17 07:35:00,23.5,18.9,28.53,South,191,4.7,6.5,80,-99.99,,,-99.99,WSDL version 420,2014-01-17 12:35:00,
2014-01-17 07:41:00,23.5,18.8,28.56,SSW,195,7.0,8.7,79,-99.99,,,-99.99,WSDL version 420,2014-01-17 12:41:00,
2014-01-17 07:47:00,23.4,18.4,28.56,SW,214,7.0,8.9,79,-99.99,,,-99.99,WSDL version 420,2014-01-17 12:47:00,
2014-01-17 07:53:00,23.3,18.4,28.56,WSW,248,5.1,8.9,79,-99.99,,,-99.99,WSDL version 420,2014-01-17 12:53:00,
2014-01-17 07:59:00,23.2,18.3,28.56,South,180,3.9,5.4,79,-99.99,,,-99.99,WSDL version 420,2014-01-17 12:59:00,
2014-01-17 08:05:00,23.2,18.3,28.56,SSW,197,3.0,4.9,79,-99.99,,,-99.99,WSDL version 420,2014-01-17 13:05:00,
2014-01-17 08:11:00,23.2,18.3,28.56,South,188,2.9,8.5,79,-99.99,,,-99.99,WSDL version 420,2014-01-17 13:11:00,
2014-01-17 08:17:00,23.2,18.3,28.56,South,188,4.8,5.6,79,-99.99,,,-99.99,WSDL version 420,2014-01-17 13:17:00,
2014-01-17 08:23:00,23.2,18.3,28.56,SSW,210,2.8,5.6,79,-99.99,,,-99.99,WSDL version 420,2014-01-17 13:23:00,
2014-01-17 08:29:00,23.2,18.3,28.56,South,180,3.2,7.6,79,-99.99,,,-99.99,WSDL version 420,2014-01-17 13:29:00,
2014-01-17 08:35:00,23.4,18.4,28.56,SSW,208,3.4,6.5,79,-99.99,,,-99.99,WSDL version 420,2014-01-17 13:35:00,
2014-01-17 08:41:00,23.4,18.4,28.56,South,188,3.6,4.3,79,-99.99,,,-99.99,WSDL version 420,2014-01-17 13:41:00,
2014-01-17 08:47:00,23.5,18.8,28.56,SSW,210,2.8,4.3,80,-99.99,,,-99.99,WSDL version 420,2014-01-17 13:47:00,
2014-01-17 08:53:00,23.5,18.7,28.56,South,188,3.2,5.4,79,-99.99,,,-99.99,WSDL version 420,2014-01-17 13:53:00,
2014-01-17 08:59:00,23.7,19.0,28.56,SW,218,3.2,4.3,80,-99.99,,,-99.99,WSDL version 420,2014-01-17 13:59:00,
2014-01-17 09:05:00,23.7,18.9,28.56,SSW,208,3.2,5.8,79,-99.99,,,-99.99,WSDL version 420,2014-01-17 14:05:00,
2014-01-17 09:11:00,23.7,18.8,28.56,SSW,208,3.1,5.8,79,-99.99,,,-99.99,WSDL version 420,2014-01-17 14:11:00,
2014-01-17 09:18:00,23.9,19.0,28.56,SSW,195,4.0,5.6,79,-99.99,,,-99.99,WSDL version 420,2014-01-17 14:18:00,
2014-01-17 09:24:00,23.8,18.8,28.59,SSW,203,4.7,5.6,79,-99.99,,,-99.99,WSDL version 420,2014-01-17 14:24:00,
2014-01-17 09:30:00,23.8,18.9,28.59,SSW,195,4.4,5.6,79,-99.99,,,-99.99,WSDL version 420,2014-01-17 14:30:00,
2014-01-17 09:36:00,23.8,18.8,28.59,South,188,2.2,4.7,78,-99.99,,,-99.99,WSDL version 420,2014-01-17 14:36:00,
2014-01-17 09:42:00,24.0,19.0,28.59,SW,218,2.5,4.0,79,-99.99,,,-99.99,WSDL version 420,2014-01-17 14:42:00,
2014-01-17 09:48:00,24.4,19.5,28.59,South,180,1.3,4.0,79,-99.99,,,-99.99,WSDL version 420,2014-01-17 14:48:00,
2014-01-17 09:54:00,24.7,19.7,28.59,SW,225,3.4,3.8,79,-99.99,,,-99.99,WSDL version 420,2014-01-17 14:54:00,
2014-01-17 10:00:00,24.9,19.9,28.59,SSW,203,4.0,5.6,79,-99.99,,,-99.99,WSDL version 420,2014-01-17 15:00:00,
2014-01-17 10:06:00,24.8,19.8,28.59,WSW,240,2.7,5.6,79,-99.99,,,-99.99,WSDL version 420,2014-01-17 15:06:00,
2014-01-17 10:12:00,25.0,19.8,28.59,SW,236,4.0,5.4,78,-99.99,,,-99.99,WSDL version 420,2014-01-17 15:12:00,
2014-01-17 10:18:00,25.0,19.8,28.59,SSW,195,3.9,5.4,78,-99.99,,,-99.99,WSDL version 420,2014-01-17 15:18:00,
2014-01-17 10:24:00,25.3,20.1,28.59,SW,225,4.9,4.9,78,-99.99,,,-99.99,WSDL version 420,2014-01-17 15:24:00,
2014-01-17 10:30:00,25.5,20.2,28.59,SW,225,3.7,5.4,78,-99.99,,,-99.99,WSDL version 420,2014-01-17 15:30:00,
2014-01-17 10:36:00,25.5,20.3,28.59,SW,233,5.0,6.9,78,-99.99,,,-99.99,WSDL version 420,2014-01-17 15:36:00,
2014-01-17 10:42:00,25.7,20.5,28.61,SSW,195,1.5,6.9,78,-99.99,,,-99.99,WSDL version 420,2014-01-17 15:42:00,
2014-01-17 10:48:00,26.2,20.9,28.61,WNW,293,3.3,5.4,78,-99.99,,,-99.99,WSDL version 420,2014-01-17 15:48:00,
2014-01-17 10:54:00,26.4,21.2,28.61,West,270,1.9,5.4,78,-99.99,,,-99.99,WSDL version 420,2014-01-17 15:54:00,
2014-01-17 11:00:00,26.6,21.1,28.61,WSW,248,2.6,3.4,77,-99.99,,,-99.99,WSDL version 420,2014-01-17 16:00:00,
2014-01-17 11:06:00,26.7,21.1,28.61,WSW,253,4.3,8.7,77,-99.99,,,-99.99,WSDL version 420,2014-01-17 16:06:00,
2014-01-17 11:12:00,26.8,21.3,28.61,NW,323,1.0,8.7,77,-99.99,,,-99.99,WSDL version 420,2014-01-17 16:12:00,
2014-01-17 11:18:00,27.0,21.2,28.61,NW,308,2.4,5.4,76,-99.99,,,-99.99,WSDL version 420,2014-01-17 16:18:00,
2014-01-17 11:24:00,27.1,21.3,28.61,WSW,255,3.3,4.0,76,-99.99,,,-99.99,WSDL version 420,2014-01-17 16:24:00,
2014-01-17 11:30:00,27.3,21.5,28.61,WSW,255,2.7,3.8,76,-99.99,,,-99.99,WSDL version 420,2014-01-17 16:30:00,
2014-01-17 11:36:00,27.6,21.7,28.61,WNW,293,1.4,6.3,76,-99.99,,,-99.99,WSDL version 420,2014-01-17 16:36:00,
2014-01-17 11:42:00,27.8,22.0,28.59,WNW,300,1.5,2.9,76,-99.99,,,-99.99,WSDL version 420,2014-01-17 16:42:00,
2014-01-17 11:48:00,27.9,21.9,28.59,SW,225,3.3,4.7,75,-99.99,,,-99.99,WSDL version 420,2014-01-17 16:48:00,
2014-01-17 11:54:00,28.1,22.1,28.59,NNW,338,1.9,4.7,75,-99.99,,,-99.99,WSDL version 420,2014-01-17 16:54:00,
2014-01-17 12:00:00,28.3,22.1,28.61,WSW,248,1.9,4.7,74,-99.99,,,-99.99,WSDL version 420,2014-01-17 17:00:00,
2014-01-17 12:06:00,28.1,21.7,28.61,West,281,2.1,4.7,74,-99.99,,,-99.99,WSDL version 420,2014-01-17 17:06:00,
2014-01-17 12:12:00,27.9,21.2,28.59,NNW,338,1.8,4.3,73,-99.99,,,-99.99,WSDL version 420,2014-01-17 17:12:00,
2014-01-17 12:18:00,28.2,21.5,28.59,West,278,1.9,4.3,73,-99.99,,,-99.99,WSDL version 420,2014-01-17 17:18:00,
2014-01-17 12:24:00,28.3,21.6,28.59,WNW,285,2.6,3.8,73,-99.99,,,-99.99,WSDL version 420,2014-01-17 17:24:00,
2014-01-17 12:30:00,28.3,21.6,28.59,SSW,195,2.8,4.3,73,-99.99,,,-99.99,WSDL version 420,2014-01-17 17:30:00,
2014-01-17 12:35:00,28.4,21.7,28.59,West,264,3.7,4.9,73,-99.99,,,-99.99,WSDL version 420,2014-01-17 17:35:00,
2014-01-17 12:41:00,28.1,21.2,28.59,SSE,165,2.8,4.9,72,-99.99,,,-99.99,WSDL version 420,2014-01-17 17:41:00,
2014-01-17 12:47:00,28.3,21.5,28.59,NNW,338,3.1,4.7,73,-99.99,,,-99.99,WSDL version 420,2014-01-17 17:47:00,
2014-01-17 12:53:00,28.5,21.8,28.59,SSW,195,0.8,6.5,73,-99.99,,,-99.99,WSDL version 420,2014-01-17 17:53:00,
2014-01-17 12:59:00,29.1,22.1,28.59,WSW,240,2.9,5.6,72,-99.99,,,-99.99,WSDL version 420,2014-01-17 17:59:00,
2014-01-17 13:05:00,28.8,21.8,28.59,NW,308,3.7,5.8,72,-99.99,,,-99.99,WSDL version 420,2014-01-17 18:05:00,
2014-01-17 13:11:00,28.5,21.2,28.59,WSW,248,3.2,5.8,71,-99.99,,,-99.99,WSDL version 420,2014-01-17 18:11:00,
2014-01-17 13:17:00,28.3,21.3,28.59,NW,315,2.2,4.3,72,-99.99,,,-99.99,WSDL version 420,2014-01-17 18:17:00,
2014-01-17 13:23:00,28.3,21.4,28.59,West,270,3.0,4.3,72,-99.99,,,-99.99,WSDL version 420,2014-01-17 18:23:00,
2014-01-17 13:29:00,27.9,21.0,28.61,West,270,3.8,4.3,72,-99.99,,,-99.99,WSDL version 420,2014-01-17 18:29:00,
2014-01-17 13:35:00,27.9,20.8,28.61,NNW,330,3.7,5.4,71,-99.99,,,-99.99,WSDL version 420,2014-01-17 18:35:00,
2014-01-17 13:41:00,27.5,19.8,28.59,NNW,338,5.8,5.8,69,-99.99,,,-99.99,WSDL version 420,2014-01-17 18:41:00,
2014-01-17 13:47:00,27.4,19.7,28.59,NNW,330,5.5,5.8,70,-99.99,,,-99.99,WSDL version 420,2014-01-17 18:47:00,
2014-01-17 13:53:00,27.3,19.5,28.59,WNW,293,4.5,5.8,69,-99.99,,,-99.99,WSDL version 420,2014-01-17 18:53:00,
2014-01-17 13:59:00,27.2,19.5,28.59,WNW,298,4.3,5.4,69,-99.99,,,-99.99,WSDL version 420,2014-01-17 18:59:00,
2014-01-17 14:05:00,27.0,19.0,28.59,WSW,240,2.2,5.4,69,-99.99,,,-99.99,WSDL version 420,2014-01-17 19:05:00,
2014-01-17 14:11:00,27.3,20.1,28.61,NNW,330,3.4,6.3,71,-99.99,,,-99.99,WSDL version 420,2014-01-17 19:11:00,
2014-01-17 14:17:00,27.2,19.8,28.61,NNW,338,3.5,6.3,70,-99.99,,,-99.99,WSDL version 420,2014-01-17 19:17:00,
2014-01-17 14:23:00,27.0,18.8,28.61,West,276,4.4,5.6,68,-99.99,,,-99.99,WSDL version 420,2014-01-17 19:23:00,
2014-01-17 14:29:00,27.0,19.1,28.59,NW,308,3.8,5.6,69,-99.99,,,-99.99,WSDL version 420,2014-01-17 19:29:00,
2014-01-17 14:35:00,27.0,19.1,28.59,NW,323,2.7,3.8,69,-99.99,,,-99.99,WSDL version 420,2014-01-17 19:35:00,
2014-01-17 14:41:00,27.1,19.4,28.61,WNW,293,3.8,8.1,69,-99.99,,,-99.99,WSDL version 420,2014-01-17 19:41:00,
2014-01-17 14:47:00,26.7,18.7,28.61,NNW,330,5.4,8.1,67,-99.99,,,-99.99,WSDL version 420,2014-01-17 19:47:00,
2014-01-17 14:53:00,25.6,17.4,28.61,NW,315,5.9,7.2,68,-99.99,,,-99.99,WSDL version 420,2014-01-17 19:53:00,
2014-01-17 14:59:00,25.3,17.2,28.61,WNW,300,5.7,7.8,68,-99.99,,,-99.99,WSDL version 420,2014-01-17 19:59:00,
2014-01-17 15:05:00,25.3,17.4,28.61,NNW,338,3.7,6.5,69,-99.99,,,-99.99,WSDL version 420,2014-01-17 20:05:00,
2014-01-17 15:11:00,24.9,16.8,28.61,NW,323,4.3,6.3,68,-99.99,,,-99.99,WSDL version 420,2014-01-17 20:11:00,
2014-01-17 15:17:00,24.7,16.9,28.61,NNW,330,5.1,6.3,68,-99.99,,,-99.99,WSDL version 420,2014-01-17 20:17:00,
2014-01-17 15:23:00,24.5,16.7,28.61,NW,308,5.4,5.8,68,-99.99,,,-99.99,WSDL version 420,2014-01-17 20:23:00,
2014-01-17 15:29:00,24.2,16.0,28.61,WNW,300,2.9,6.3,68,-99.99,,,-99.99,WSDL version 420,2014-01-17 20:29:00,
2014-01-17 15:35:00,24.1,16.1,28.61,NNW,330,4.8,6.3,68,-99.99,,,-99.99,WSDL version 420,2014-01-17 20:35:00,
2014-01-17 15:41:00,24.1,16.2,28.61,NW,309,4.5,6.3,69,-99.99,,,-99.99,WSDL version 420,2014-01-17 20:41:00,
2014-01-17 15:47:00,23.9,15.7,28.61,NNW,330,4.2,6.5,67,-99.99,,,-99.99,WSDL version 420,2014-01-17 20:47:00,
2014-01-17 15:53:00,23.9,16.0,28.61,NNW,338,3.9,5.4,69,-99.99,,,-99.99,WSDL version 420,2014-01-17 20:53:00,
2014-01-17 15:59:00,23.9,16.2,28.64,WNW,300,4.8,5.6,69,-99.99,,,-99.99,WSDL version 420,2014-01-17 20:59:00,
2014-01-17 16:05:00,23.9,16.5,28.64,WNW,298,3.3,5.6,70,-99.99,,,-99.99,WSDL version 420,2014-01-17 21:05:00,
2014-01-17 16:11:00,23.7,15.9,28.64,NW,321,5.4,6.0,68,-99.99,,,-99.99,WSDL version 420,2014-01-17 21:11:00,
2014-01-17 16:17:00,23.5,15.5,28.64,NW,308,4.9,6.3,68,-99.99,,,-99.99,WSDL version 420,2014-01-17 21:17:00,
2014-01-17 16:23:00,23.4,15.6,28.64,NW,315,5.4,6.3,69,-99.99,,,-99.99,WSDL version 420,2014-01-17 21:23:00,
2014-01-17 16:29:00,23.4,15.7,28.64,WNW,285,2.2,5.4,69,-99.99,,,-99.99,WSDL version 420,2014-01-17 21:29:00,
2014-01-17 16:35:00,23.3,15.5,28.64,WNW,300,5.1,6.0,68,-99.99,,,-99.99,WSDL version 420,2014-01-17 21:35:00,
2014-01-17 16:42:00,23.1,15.2,28.64,NW,309,5.0,6.0,69,-99.99,,,-99.99,WSDL version 420,2014-01-17 21:42:00,
2014-01-17 16:48:00,23.0,15.0,28.64,NW,321,2.9,6.0,68,-99.99,,,-99.99,WSDL version 420,2014-01-17 21:48:00,
2014-01-17 16:54:00,23.1,15.6,28.64,NW,323,3.5,6.0,70,-99.99,,,-99.99,WSDL version 420,2014-01-17 21:54:00,
2014-01-17 17:00:00,23.0,15.3,28.64,WNW,293,2.7,6.5,69,-99.99,,,-99.99,WSDL version 420,2014-01-17 22:00:00,
2014-01-17 17:06:00,23.2,15.8,28.64,WNW,293,2.3,3.8,70,-99.99,,,-99.99,WSDL version 420,2014-01-17 22:06:00,
2014-01-17 17:12:00,23.1,15.7,28.67,West,264,2.7,2.9,70,-99.99,,,-99.99,WSDL version 420,2014-01-17 22:12:00,
2014-01-17 17:18:00,23.0,15.7,28.67,WNW,293,1.9,3.4,71,-99.99,,,-99.99,WSDL version 420,2014-01-17 22:18:00,
2014-01-17 17:24:00,22.8,15.6,28.67,WNW,300,3.4,5.8,71,-99.99,,,-99.99,WSDL version 420,2014-01-17 22:24:00,
2014-01-17 17:30:00,22.8,15.9,28.67,NW,308,3.0,4.0,72,-99.99,,,-99.99,WSDL version 420,2014-01-17 22:30:00,
2014-01-17 17:36:00,22.7,15.7,28.67,NW,315,4.3,6.5,71,-99.99,,,-99.99,WSDL version 420,2014-01-17 22:36:00,
2014-01-17 17:42:00,22.2,15.1,28.67,NW,309,3.7,6.5,71,-99.99,,,-99.99,WSDL version 420,2014-01-17 22:42:00,
2014-01-17 17:48:00,22.0,15.0,28.67,NNW,338,2.8,4.3,71,-99.99,,,-99.99,WSDL version 420,2014-01-17 22:48:00,
2014-01-17 17:54:00,21.9,14.8,28.67,WNW,300,3.6,4.3,71,-99.99,,,-99.99,WSDL version 420,2014-01-17 22:54:00,
2014-01-17 18:00:00,21.7,14.4,28.67,WNW,293,4.1,7.2,70,-99.99,,,-99.99,WSDL version 420,2014-01-17 23:00:00,
2014-01-17 18:06:00,21.7,14.3,28.67,West,278,3.9,5.4,70,-99.99,,,-99.99,WSDL version 420,2014-01-17 23:06:00,
2014-01-17 18:12:00,21.4,14.1,28.70,West,264,2.9,5.6,70,-99.99,,,-99.99,WSDL version 420,2014-01-17 23:12:00,
2014-01-17 18:18:00,21.3,14.1,28.70,NW,326,2.6,5.6,71,-99.99,,,-99.99,WSDL version 420,2014-01-17 23:18:00,
2014-01-17 18:24:00,21.0,13.7,28.70,WNW,300,2.7,4.0,70,-99.99,,,-99.99,WSDL version 420,2014-01-17 23:24:00,
2014-01-17 18:30:00,21.0,14.0,28.70,NW,315,2.8,4.0,71,-99.99,,,-99.99,WSDL version 420,2014-01-17 23:30:00,
2014-01-17 18:36:00,21.0,14.1,28.70,NW,315,2.1,3.8,72,-99.99,,,-99.99,WSDL version 420,2014-01-17 23:36:00,
2014-01-17 18:42:00,21.0,14.3,28.70,West,264,2.4,3.8,72,-99.99,,,-99.99,WSDL version 420,2014-01-17 23:42:00,
2014-01-17 18:48:00,21.0,14.3,28.70,WSW,240,2.5,5.4,72,-99.99,,,-99.99,WSDL version 420,2014-01-17 23:48:00,
2014-01-17 18:54:00,20.9,14.2,28.70,SW,233,1.9,5.4,72,-99.99,,,-99.99,WSDL version 420,2014-01-17 23:54:00,
2014-01-17 19:00:00,20.8,13.8,28.70,West,270,5.6,7.2,71,-99.99,,,-99.99,WSDL version 420,2014-01-18 00:00:00,
2014-01-17 19:05:00,20.8,13.8,28.70,WNW,285,2.5,7.2,71,-99.99,,,-99.99,WSDL version 420,2014-01-18 00:05:00,
2014-01-17 19:11:00,20.8,13.9,28.70,West,270,4.3,7.2,71,-99.99,,,-99.99,WSDL version 420,2014-01-18 00:11:00,
2014-01-17 19:17:00,20.5,13.4,28.70,WSW,255,1.9,7.2,71,-99.99,,,-99.99,WSDL version 420,2014-01-18 00:17:00,
2014-01-17 19:23:00,20.4,13.2,28.70,WSW,253,3.0,7.2,70,-99.99,,,-99.99,WSDL version 420,2014-01-18 00:23:00,
2014-01-17 19:29:00,20.3,13.3,28.73,West,278,2.4,8.5,71,-99.99,,,-99.99,WSDL version 420,2014-01-18 00:29:00,
2014-01-17 19:35:00,20.3,13.3,28.73,WSW,240,2.2,8.5,71,-99.99,,,-99.99,WSDL version 420,2014-01-18 00:35:00,
2014-01-17 19:41:00,20.3,13.3,28.73,WSW,248,1.3,4.0,71,-99.99,,,-99.99,WSDL version 420,2014-01-18 00:41:00,
2014-01-17 19:47:00,20.3,13.3,28.73,WSW,240,6.0,7.2,71,-99.99,,,-99.99,WSDL version 420,2014-01-18 00:47:00,
2014-01-17 19:53:00,20.2,13.3,28.73,SSW,203,1.9,7.2,72,-99.99,,,-99.99,WSDL version 420,2014-01-18 00:53:00,
2014-01-17 19:59:00,20.1,13.4,28.73,SSW,195,2.5,3.6,72,-99.99,,,-99.99,WSDL version 420,2014-01-18 00:59:00,
2014-01-17 20:05:00,20.1,13.3,28.73,SW,236,3.6,4.9,72,-99.99,,,-99.99,WSDL version 420,2014-01-18 01:05:00,
2014-01-17 20:11:00,19.8,13.0,28.73,SW,233,5.0,6.0,71,-99.99,,,-99.99,WSDL version 420,2014-01-18 01:11:00,
2014-01-17 20:17:00,19.6,12.6,28.73,WSW,248,2.2,5.6,71,-99.99,,,-99.99,WSDL version 420,2014-01-18 01:17:00,
2014-01-17 20:23:00,19.5,12.5,28.73,South,180,2.7,5.6,71,-99.99,,,-99.99,WSDL version 420,2014-01-18 01:23:00,
2014-01-17 20:29:00,19.3,12.6,28.73,South,188,4.8,5.6,72,-99.99,,,-99.99,WSDL version 420,2014-01-18 01:29:00,
2014-01-17 20:35:00,19.1,12.4,28.73,SW,218,3.9,5.8,72,-99.99,,,-99.99,WSDL version 420,2014-01-18 01:35:00,
2014-01-17 20:41:00,18.7,11.8,28.73,SW,225,5.7,6.0,71,-99.99,,,-99.99,WSDL version 420,2014-01-18 01:41:00,
2014-01-17 20:47:00,18.4,11.4,28.73,SSW,203,5.1,6.0,70,-99.99,,,-99.99,WSDL version 420,2014-01-18 01:47:00,
2014-01-17 20:53:00,18.0,10.7,28.73,WSW,248,2.5,6.0,69,-99.99,,,-99.99,WSDL version 420,2014-01-18 01:53:00,
2014-01-17 20:59:00,17.8,10.3,28.73,WSW,253,3.5,8.1,69,-99.99,,,-99.99,WSDL version 420,2014-01-18 01:59:00,
2014-01-17 21:05:00,17.5,10.0,28.73,SSW,203,3.4,8.1,69,-99.99,,,-99.99,WSDL version 420,2014-01-18 02:05:00,
2014-01-17 21:11:00,17.6,10.3,28.73,West,270,4.7,6.0,70,-99.99,,,-99.99,WSDL version 420,2014-01-18 02:11:00,
2014-01-17 21:17:00,17.4,9.9,28.73,WSW,240,3.8,6.0,69,-99.99,,,-99.99,WSDL version 420,2014-01-18 02:17:00,
2014-01-17 21:23:00,17.5,10.1,28.73,WSW,248,3.7,6.0,69,-99.99,,,-99.99,WSDL version 420,2014-01-18 02:23:00,
2014-01-17 21:29:00,17.4,10.0,28.73,SW,236,4.4,5.6,69,-99.99,,,-99.99,WSDL version 420,2014-01-18 02:29:00,
2014-01-17 21:35:00,17.1,9.6,28.73,WSW,240,4.4,5.6,69,-99.99,,,-99.99,WSDL version 420,2014-01-18 02:35:00,
2014-01-17 21:41:00,16.9,9.4,28.73,West,270,4.4,7.4,69,-99.99,,,-99.99,WSDL version 420,2014-01-18 02:41:00,
2014-01-17 21:47:00,16.7,9.2,28.73,WSW,242,5.6,7.8,69,-99.99,,,-99.99,WSDL version 420,2014-01-18 02:47:00,
2014-01-17 21:53:00,16.6,9.0,28.73,WSW,255,4.6,7.8,68,-99.99,,,-99.99,WSDL version 420,2014-01-18 02:53:00,
2014-01-17 21:59:00,16.2,8.5,28.73,SW,218,3.9,7.6,68,-99.99,,,-99.99,WSDL version 420,2014-01-18 02:59:00,
2014-01-17 22:05:00,16.0,8.2,28.73,SSW,210,7.5,9.6,68,-99.99,,,-99.99,WSDL version 420,2014-01-18 03:05:00,
2014-01-17 22:11:00,15.6,8.0,28.73,SSW,203,4.1,9.4,69,-99.99,,,-99.99,WSDL version 420,2014-01-18 03:11:00,
2014-01-17 22:17:00,15.4,8.0,28.73,SSW,203,5.4,8.5,69,-99.99,,,-99.99,WSDL version 420,2014-01-18 03:17:00,
2014-01-17 22:23:00,15.4,8.0,28.73,SSW,210,5.4,8.5,69,-99.99,,,-99.99,WSDL version 420,2014-01-18 03:23:00,
2014-01-17 22:29:00,15.3,7.9,28.73,SSW,203,4.0,9.4,69,-99.99,,,-99.99,WSDL version 420,2014-01-18 03:29:00,
2014-01-17 22:35:00,15.1,7.7,28.73,SW,233,3.7,7.4,69,-99.99,,,-99.99,WSDL version 420,2014-01-18 03:35:00,
2014-01-17 22:41:00,15.1,7.6,28.73,South,180,5.6,6.5,69,-99.99,,,-99.99,WSDL version 420,2014-01-18 03:41:00,
2014-01-17 22:47:00,15.0,7.5,28.73,SSW,208,5.4,7.8,69,-99.99,,,-99.99,WSDL version 420,2014-01-18 03:47:00,
2014-01-17 22:53:00,14.9,7.5,28.73,SSW,203,4.4,8.1,69,-99.99,,,-99.99,WSDL version 420,2014-01-18 03:53:00,
2014-01-17 22:59:00,14.5,7.1,28.73,SW,225,5.7,8.1,69,-99.99,,,-99.99,WSDL version 420,2014-01-18 03:59:00,
2014-01-17 23:05:00,14.3,6.6,28.73,SW,225,4.6,9.6,68,-99.99,,,-99.99,WSDL version 420,2014-01-18 04:05:00,
2014-01-17 23:11:00,14.4,6.7,28.73,SSW,203,5.1,9.6,68,-99.99,,,-99.99,WSDL version 420,2014-01-18 04:11:00,
2014-01-17 23:17:00,14.3,6.6,28.73,South,186,4.7,8.5,68,-99.99,,,-99.99,WSDL version 420,2014-01-18 04:17:00,
2014-01-17 23:23:00,14.2,6.5,28.73,South,173,4.8,8.7,68,-99.99,,,-99.99,WSDL version 420,2014-01-18 04:23:00,
2014-01-17 23:29:00,14.2,6.4,28.73,SW,233,3.1,7.6,67,-99.99,,,-99.99,WSDL version 420,2014-01-18 04:29:00,
2014-01-17 23:35:00,13.9,6.2,28.73,SW,218,5.2,8.7,68,-99.99,,,-99.99,WSDL version 420,2014-01-18 04:35:00,
2014-01-17 23:41:00,13.9,6.2,28.73,SSW,195,3.9,8.7,68,-99.99,,,-99.99,WSDL version 420,2014-01-18 04:41:00,
2014-01-17 23:47:00,14.0,6.3,28.73,SSW,208,5.1,7.4,68,-99.99,,,-99.99,WSDL version 420,2014-01-18 04:47:00,
2014-01-17 23:53:00,13.9,6.2,28.73,SSW,203,9.2,10.3,68,-99.99,,,-99.99,WSDL version 420,2014-01-18 04:53:00,
2014-01-17 23:59:00,13.9,6.2,28.73,SW,219,2.7,10.3,68,-99.99,,,-99.99,WSDL version 420,2014-01-18 04:59:00,